Location: Las Vegas
(36.1750°N, 115.1360°W)
Time: 10:14:50
(UTC-07:00)

Amateur Radio Satellites - All Passes

Search period start: 27 September 2016 09:44
Search period end: 28 September 2016 09:44
Location: Las Vegas, 36.1750°N, 115.1360°W

Satellite Date Start Highest point End Downlink Frequencies (MHz)
Time Altitude Azimuth
Oscar 11 27 Sep 09:46:07 09:50:29 74° 103° (ESE) 09:54:49 145.826/435.025
ZACube-1 27 Sep 09:46:40 09:51:02 79° 103° (ESE) 09:55:27 437.345
PHONESAT 2.4 27 Sep 09:49:47 09:51:53 18° 146° (SSE) 09:53:59 2401.200-2431.200
CUTE 1.7 + AOD 2 27 Sep 09:51:09 09:53:18 14° 294° (WNW) 09:55:27 437.475
BEESAT 3 27 Sep 09:52:00 09:55:48 41° 57° (ENE) 09:59:33 437.485
CANX-2 27 Sep 09:52:55 09:54:20 11° 295° (WNW) 09:55:46 2200.000
SEEDS 27 Sep 09:53:13 09:56:05 18° 292° (WNW) 09:58:57 437.485
ANTELSAT 27 Sep 10:02:39 10:06:53 65° 75° (ENE) 10:11:06 437.575/2403.000
DELFI C3 27 Sep 10:07:16 10:11:10 48° 99° (E) 10:15:02 145.870
HUMSAT D 27 Sep 10:13:23 10:17:02 27° 96° (E) 10:20:41 437.325/437.525
AAUSAT CUBESAT 2 27 Sep 10:17:48 10:20:34 17° 292° (WNW) 10:23:19 437.432
TIGRISAT 27 Sep 10:23:20 10:27:36 75° 258° (WSW) 10:31:52 435.000
CUBEBUG 2 27 Sep 10:34:43 10:36:35 13° 293° (WNW) 10:38:29 437.445
JAS-2 27 Sep 10:41:39 10:46:46 25° 62° (ENE) 10:52:20 435.910
FUNcube-1 27 Sep 10:41:46 10:45:22 26° 289° (WNW) 10:49:01 145.935
BEESAT 2 27 Sep 10:46:03 10:50:04 84° 59° (ENE) 10:54:05 435.950
DUCHIFAT 1 27 Sep 10:48:32 10:51:44 22° 69° (ENE) 10:54:57 145.980
QB50P1 27 Sep 10:49:39 10:53:09 26° 70° (ENE) 10:56:38 145.935-145.965
UWE-3 27 Sep 10:54:26 10:56:01 12° 294° (WNW) 10:57:38 435.000/436.395/437.385
POPSAT HIP 1 27 Sep 11:02:42 11:06:34 36° 72° (ENE) 11:10:24 437.405
UNISAT 6 27 Sep 11:04:48 11:08:12 23° 264° (W) 11:11:36 437.425
NANOSAT C BR1 27 Sep 11:19:10 11:23:16 55° 74° (ENE) 11:27:21 145.865
PHONESAT 2.4 27 Sep 11:24:49 11:27:45 76° 339° (NNW) 11:30:42 2401.200-2431.200
BEESAT 3 27 Sep 11:31:01 11:33:03 14° 251° (WSW) 11:35:05 437.485
AISAT 27 Sep 11:38:36 11:41:33 18° 94° (E) 11:44:30 437.250
QB50P2 27 Sep 11:41:57 11:46:08 67° 258° (WSW) 11:50:20 145.880/145.840
POLYITAN 1 27 Sep 11:44:12 11:48:22 66° 259° (W) 11:52:32 437.675
DELFI C3 27 Sep 11:44:14 11:45:32 11° 294° (WNW) 11:46:50 145.870
50 SAT 27 Sep 11:47:53 11:50:27 18° 95° (E) 11:53:01 437.505
HUMSAT D 27 Sep 11:49:12 11:52:28 22° 291° (WNW) 11:55:45 437.325/437.525
Oscar 19 27 Sep 12:04:37 12:07:32 15° 64° (ENE) 12:10:26 437.125/150
DX 1 27 Sep 12:15:21 12:19:02 26° 97° (E) 12:22:40 434.975-435.025
ESTCUBE 1 27 Sep 12:19:27 12:23:59 74° 284° (WNW) 12:28:29 437.505/2401.250
VELOX 1 27 Sep 12:21:10 12:25:29 52° 100° (E) 12:29:45 145.980
DUCHIFAT 1 27 Sep 12:23:46 12:27:16 26° 263° (W) 12:30:47 145.980
JAS-2 27 Sep 12:25:06 12:31:12 54° 262° (W) 12:38:09 435.910
QB50P1 27 Sep 12:25:35 12:28:51 22° 264° (W) 12:32:07 145.935-145.965
CUBEBUG 1 27 Sep 12:26:47 12:31:08 84° 103° (ESE) 12:35:26 437.445
BUGSAT 1 27 Sep 12:27:38 12:31:43 59° 259° (W) 12:35:45 437.445
AUBIESAT-1 27 Sep 12:34:32 12:37:23 26° 103° (ESE) 12:40:14 437.475
POPSAT HIP 1 27 Sep 12:39:54 12:42:26 15° 266° (W) 12:44:58 437.405
Gurwin Techsat 1B 27 Sep 12:56:57 13:01:03 23° 66° (ENE) 13:05:09 435.225
TISAT 1 27 Sep 12:58:34 13:00:24 13° 93° (E) 13:02:14 437.305
PHONESAT 2.4 27 Sep 13:01:22 13:04:07 33° 358° (N) 13:06:50 2401.200-2431.200
AIST 2 27 Sep 13:03:43 13:07:56 84° 62° (ENE) 13:12:07 435.215
SPROUT 27 Sep 13:10:05 13:14:20 74° 284° (WNW) 13:18:34 437.525
M-CUBED/EXP-1 PRIME 27 Sep 13:11:11 13:14:25 61° 289° (WNW) 13:17:39 437.505
AO-7 27 Sep 13:11:59 13:13:41 11° 48° (NE) 13:15:23 29.400- 29.500
AISAT 27 Sep 13:14:07 13:18:06 35° 288° (WNW) 13:22:03 437.250
Cosmos 2491 27 Sep 13:17:10 13:21:36 15° 78° (ENE) 13:26:03 435.465 / 435.565
50 SAT 27 Sep 13:20:57 13:23:53 23° 289° (WNW) 13:26:47 437.505
YUBILEINY 27 Sep 13:21:11 13:28:49 33° 73° (ENE) 13:36:22 435.215
UKube-1 27 Sep 13:23:13 13:27:29 62° 286° (WNW) 13:31:43 .
Oscar 19 27 Sep 13:41:10 13:46:18 61° 259° (W) 13:51:27 437.125/150
PCSat 27 Sep 13:44:28 13:49:50 58° 61° (ENE) 13:55:08 145.827
DX 1 27 Sep 13:51:39 13:55:04 23° 291° (WNW) 13:58:28 434.975-435.025
SO-50 27 Sep 13:58:36 14:01:12 15° 108° (ESE) 14:03:48 436.795
VELOX 1 27 Sep 13:59:31 14:01:27 13° 295° (WNW) 14:03:22 145.980
AUBIESAT-1 27 Sep 14:10:01 14:11:38 13° 296° (WNW) 14:13:15 437.475
Cosmos 2504 27 Sep 14:30:47 14:37:26 33° 75° (ENE) 14:44:25 435.465 / 435.565
TISAT 1 27 Sep 14:32:16 14:36:14 43° 287° (WNW) 14:40:10 437.305
ITAMSAT 1 27 Sep 14:33:25 14:38:25 53° 72° (ENE) 14:43:27 435.822/435.867
Gurwin Techsat 1B 27 Sep 14:35:47 14:40:42 39° 261° (W) 14:45:41 435.225
ITUPSAT 1 27 Sep 14:37:32 14:41:50 32° 97° (E) 14:46:07 437.325
PHONESAT 2.4 27 Sep 14:37:39 14:40:32 49° 14° (NNE) 14:43:26 2401.200-2431.200
SWISSCUBE 27 Sep 14:50:35 14:55:16 51° 100° (E) 14:59:56 437.505
AO-7 27 Sep 14:56:36 15:04:40 57° 67° (ENE) 15:12:44 29.400- 29.500
BEESAT 27 Sep 15:03:33 15:08:19 63° 101° (E) 15:13:03 436.000
Cosmos 2491 27 Sep 15:08:17 15:17:04 89° 102° (ESE) 15:25:58 435.465 / 435.565
YUBILEINY 27 Sep 15:17:34 15:25:46 48° 271° (W) 15:33:57 435.215
PCSat 27 Sep 15:29:24 15:32:40 16° 256° (WSW) 15:35:57 145.827
AIST 1 27 Sep 15:31:15 15:33:37 14° 73° (ENE) 15:35:59
SO-50 27 Sep 15:36:26 15:41:12 57° 302° (WNW) 15:45:56 436.795
STARS 27 Sep 16:02:10 16:03:14 11° 92° (E) 16:04:18 437.465
PHONESAT 2.4 27 Sep 16:13:53 16:16:36 33° 209° (SSW) 16:19:20 2401.200-2431.200
ITAMSAT 1 27 Sep 16:15:05 16:18:09 16° 267° (W) 16:21:15 435.822/435.867
ITUPSAT 1 27 Sep 16:15:40 16:19:28 24° 292° (WNW) 16:23:17 437.325
Cosmos 2504 27 Sep 16:23:53 16:30:47 41° 271° (W) 16:38:07 435.465 / 435.565
SWISSCUBE 27 Sep 16:29:48 16:32:36 16° 295° (WNW) 16:35:23 437.505
MOZHAYETS 4 27 Sep 16:33:09 16:37:49 82° 283° (WNW) 16:42:27
BEESAT 27 Sep 16:43:28 16:45:31 13° 297° (WNW) 16:47:34 436.000
AO-7 27 Sep 16:50:50 16:57:43 28° 263° (W) 17:04:38 29.400- 29.500
KKS-1 27 Sep 17:01:03 17:05:26 64° 285° (WNW) 17:09:48 437.445
GOMX 1 27 Sep 17:06:05 17:10:08 22° 68° (ENE) 17:14:05 467.674
AIST 1 27 Sep 17:07:25 17:11:22 37° 268° (W) 17:15:18
Cosmos 2491 27 Sep 17:09:52 17:15:05 17° 295° (WNW) 17:20:22 435.465 / 435.565
NOAA 18 27 Sep 17:10:16 17:13:51 18° 64° (ENE) 17:17:26 137.9125
BRITE-PL 27 Sep 17:13:15 17:18:50 60° 75° (ENE) 17:24:22 437.365/2234.400
HORYU 2 27 Sep 17:16:27 17:20:50 69° 258° (WSW) 17:25:14 437.375
O/OREOS (USA 219) 27 Sep 17:20:56 17:25:33 76° 70° (ENE) 17:30:06 437.305
DOVE 4 27 Sep 17:30:25 17:33:14 15° 67° (ENE) 17:35:59 437.250
STARS 27 Sep 17:35:36 17:39:52 55° 286° (WNW) 17:44:08 437.465
CUSAT 1 27 Sep 17:39:34 17:42:06 12° 77° (ENE) 17:44:46 437.405
CUBESAT XI-V 27 Sep 17:52:03 17:56:46 88° 102° (ESE) 18:01:26 437.345
NOAA 15 27 Sep 17:54:15 17:59:31 70° 74° (ENE) 18:04:49 137.62
Cubesat XI-IV 27 Sep 18:09:25 18:14:43 77° 75° (ENE) 18:20:03 437.490
CUTE-I 27 Sep 18:09:40 18:14:57 79° 76° (ENE) 18:20:17 437.470
HO-68 27 Sep 18:14:48 18:19:27 19° 59° (ENE) 18:24:06 435.675
LilacSat-2 27 Sep 18:15:26 18:19:11 83° 260° (W) 18:22:58 437.200
GOMX 1 27 Sep 18:42:45 18:47:54 43° 262° (W) 18:52:53 467.674
CINEMA 3 27 Sep 18:43:41 18:47:00 21° 70° (ENE) 18:50:13 145.822/145.860
NOAA 18 27 Sep 18:48:40 18:54:02 55° 259° (W) 18:59:24 137.9125
STRAND 1 27 Sep 18:49:55 18:52:47 15° 92° (E) 18:55:38 437.568
BRITE-PL 27 Sep 18:53:58 18:57:34 17° 268° (W) 19:01:09 437.365/2234.400
CUTE 1.7 + AOD 2 27 Sep 19:04:13 19:07:34 23° 70° (ENE) 19:10:56 437.475
CANX-2 27 Sep 19:05:08 19:08:43 28° 71° (ENE) 19:12:21 2200.000
DANDE 27 Sep 19:05:30 19:09:24 23° 83° (E) 19:14:09 436.750
DOVE 4 27 Sep 19:05:31 19:10:30 55° 260° (W) 19:15:15 437.250
SEEDS 27 Sep 19:06:46 19:09:31 17° 68° (ENE) 19:12:16 437.485
RS-15 27 Sep 19:15:35 19:26:28 52° 109° (ESE) 19:37:54 29.354- 29.394
CUSAT 1 27 Sep 19:16:37 19:22:33 89° 90° (E) 19:30:01 437.405
AAUSAT CUBESAT 2 27 Sep 19:30:06 19:32:43 16° 68° (ENE) 19:35:21 437.432
Cosmos 2499 27 Sep 19:34:27 19:41:44 46° 78° (ENE) 19:49:32 435.465 / 435.565
NOAA 15 27 Sep 19:37:40 19:39:44 12° 269° (W) 19:41:47 137.62
AO-85 27 Sep 19:39:09 19:41:59 15° 108° (ESE) 19:44:45 145.980
GONETS M04 27 Sep 19:39:16 19:47:58 59° 80° (E) 19:56:32
CUBEBUG 2 27 Sep 19:52:09 19:55:46 29° 72° (ENE) 19:59:22 437.445
Cubesat XI-IV 27 Sep 19:54:11 19:55:18 11° 270° (W) 19:56:26 437.490
CUTE-I 27 Sep 19:54:40 19:55:32 10° 270° (W) 19:56:24 437.470
HO-68 27 Sep 19:59:10 20:06:21 78° 255° (WSW) 20:13:33 435.675
FUNcube-1 27 Sep 20:00:21 20:02:13 13° 66° (ENE) 20:04:05 145.935
ISS 27 Sep 20:03:13 20:06:27 83° 138° (SE) 20:09:43 145.825
UWE-3 27 Sep 20:10:35 20:14:14 30° 72° (ENE) 20:17:51 435.000/436.395/437.385
COMPASS 1 27 Sep 20:12:26 20:16:34 69° 76° (ENE) 20:20:45 437.405
CINEMA 3 27 Sep 20:19:56 20:23:56 31° 262° (W) 20:27:49 145.822/145.860
JUGNU 27 Sep 20:21:46 20:24:22 13° 171° (S) 20:26:58 437.505
STRAND 1 27 Sep 20:27:13 20:32:15 56° 287° (WNW) 20:37:16 437.568
Oscar 11 27 Sep 20:38:08 20:42:08 39° 73° (ENE) 20:46:10 145.826/435.025
CUTE 1.7 + AOD 2 27 Sep 20:39:48 20:43:16 25° 264° (W) 20:46:46 437.475
ZACube-1 27 Sep 20:40:00 20:43:53 41° 73° (ENE) 20:47:47 437.345
SEEDS 27 Sep 20:41:06 20:44:54 34° 262° (W) 20:48:46 437.485
CANX-2 27 Sep 20:41:22 20:44:32 21° 265° (W) 20:47:45 2200.000
DANDE 27 Sep 20:47:01 20:51:38 38° 288° (WNW) 20:57:41 436.750
DELFI C3 27 Sep 20:51:04 20:53:59 20° 69° (ENE) 20:56:55 145.870
PRISM 27 Sep 20:57:52 21:01:24 27° 97° (E) 21:04:52 437.425
CUSAT 1 27 Sep 21:02:19 21:05:52 15° 299° (WNW) 21:09:46 437.405
HUMSAT D 27 Sep 21:03:35 21:05:34 13° 67° (ENE) 21:07:35 437.325/437.525
AAUSAT CUBESAT 2 27 Sep 21:04:05 21:07:53 35° 262° (W) 21:11:43 437.432
AO-85 27 Sep 21:16:48 21:22:01 64° 301° (WNW) 21:26:56 145.980
RS-15 27 Sep 21:28:00 21:39:02 47° 311° (NW) 21:50:42 29.354- 29.394
Cosmos 2499 27 Sep 21:28:04 21:34:32 31° 273° (W) 21:41:24 435.465 / 435.565
CUBEBUG 2 27 Sep 21:29:24 21:32:24 19° 265° (W) 21:35:23 437.445
FUNcube-1 27 Sep 21:34:06 21:38:03 44° 261° (W) 21:42:00 145.935
GONETS M04 27 Sep 21:37:14 21:44:05 26° 277° (W) 21:50:53
ISS 27 Sep 21:41:31 21:43:19 14° 335° (NNW) 21:45:08 145.825
UWE-3 27 Sep 21:47:53 21:50:43 18° 266° (W) 21:53:33 435.000/436.395/437.385
HO-68 27 Sep 21:54:01 21:54:59 10° 271° (W) 21:55:59 435.675
ANTELSAT 27 Sep 21:57:43 22:00:35 17° 94° (E) 22:03:28 437.575/2403.000
JUGNU 27 Sep 22:09:10 22:12:36 16° 181° (S) 22:16:00 437.505
Oscar 11 27 Sep 22:15:55 22:18:24 15° 267° (W) 22:20:54 145.826/435.025
TIGRISAT 27 Sep 22:17:31 22:21:16 26° 97° (E) 22:25:03 435.000
ZACube-1 27 Sep 22:18:26 22:20:21 13° 268° (W) 22:22:16 437.345
DELFI C3 27 Sep 22:25:15 22:28:37 26° 264° (W) 22:32:01 145.870
PRISM 27 Sep 22:33:26 22:36:31 21° 291° (WNW) 22:39:34 437.425
AISAT 27 Sep 22:34:41 22:36:31 12° 65° (ENE) 22:38:21 437.250
HUMSAT D 27 Sep 22:36:57 22:40:48 41° 262° (W) 22:44:42 437.325/437.525
UNISAT 6 27 Sep 22:57:35 23:02:01 84° 102° (ESE) 23:06:33 437.425
SRMSAT 27 Sep 23:06:02 23:08:57 14° 172° (S) 23:11:53 437.500
NANOSAT C BR1 27 Sep 23:08:52 23:09:42 10° 92° (E) 23:10:31 145.865
DX 1 27 Sep 23:08:58 23:11:53 18° 67° (ENE) 23:14:48 434.975-435.025
VELOX 1 27 Sep 23:15:49 23:19:48 33° 71° (ENE) 23:23:49 145.980
ESTCUBE 1 27 Sep 23:15:53 23:20:23 72° 76° (ENE) 23:24:56 437.505/2401.250
AUBIESAT-1 27 Sep 23:17:44 23:21:10 26° 67° (ENE) 23:24:25 437.475
CUBEBUG 1 27 Sep 23:19:45 23:24:00 48° 74° (ENE) 23:28:16 437.445
QB50P2 27 Sep 23:30:00 23:33:23 23° 96° (E) 23:36:45 145.880/145.840
POLYITAN 1 27 Sep 23:32:12 23:35:35 23° 96° (E) 23:38:58 437.675
ANTELSAT 27 Sep 23:33:17 23:37:23 38° 287° (WNW) 23:41:33 437.575/2403.000
JAS-2 27 Sep 23:37:38 23:44:22 31° 93° (E) 23:50:45 435.910
BEESAT 3 27 Sep 23:41:49 23:43:36 13° 109° (ESE) 23:45:24 437.485
RS-15 27 Sep 23:48:27 23:55:55 18° 343° (NNW) 00:03:33 29.354- 29.394
50 SAT 27 Sep 23:53:56 23:57:32 85° 258° (WSW) 00:01:13 437.505
TIGRISAT 27 Sep 23:54:16 23:57:49 24° 290° (WNW) 00:01:25 435.000
M-CUBED/EXP-1 PRIME 27 Sep 23:54:16 23:58:30 83° 253° (WSW) 00:02:26 437.505
JUGNU 27 Sep 23:58:36 00:00:48 12° 191° (S) 00:02:59 437.505
SPROUT 28 Sep 00:00:36 00:04:46 57° 75° (ENE) 00:08:58 437.525
AISAT 28 Sep 00:08:05 00:12:28 56° 259° (W) 00:16:51 437.250
DUCHIFAT 1 28 Sep 00:09:34 00:13:41 56° 100° (E) 00:17:49 145.980
SO-50 28 Sep 00:10:29 00:15:00 59° 58° (ENE) 00:19:23 436.795
QB50P1 28 Sep 00:11:40 00:15:53 71° 102° (ESE) 00:20:04 145.935-145.965
BUGSAT 1 28 Sep 00:12:34 00:15:42 22° 96° (E) 00:18:50 437.445
UKube-1 28 Sep 00:14:37 00:18:56 76° 75° (ENE) 00:23:16 .
POPSAT HIP 1 28 Sep 00:25:11 00:29:24 81° 284° (WNW) 00:33:37 437.405
BEESAT 2 28 Sep 00:35:42 00:39:01 26° 112° (ESE) 00:42:21 435.950
NANOSAT C BR1 28 Sep 00:41:36 00:45:41 52° 286° (WNW) 00:49:47 145.865
DX 1 28 Sep 00:43:44 00:47:45 36° 261° (W) 00:51:49 434.975-435.025
AUBIESAT-1 28 Sep 00:52:28 00:55:33 20° 258° (WSW) 00:58:30 437.475
VELOX 1 28 Sep 00:53:08 00:56:18 19° 265° (W) 00:59:29 145.980
SRMSAT 28 Sep 00:53:58 00:57:20 16° 183° (S) 01:00:42 437.500
CUBEBUG 1 28 Sep 00:58:31 01:00:30 13° 268° (W) 01:02:30 437.445
QB50P2 28 Sep 01:05:39 01:09:05 25° 290° (WNW) 01:12:31 145.880/145.840
POLYITAN 1 28 Sep 01:07:51 01:11:17 25° 290° (WNW) 01:14:43 437.675
BEESAT 3 28 Sep 01:17:08 01:20:50 42° 303° (WNW) 01:24:35 437.485
Gurwin Techsat 1B 28 Sep 01:18:39 01:19:03 10° 90° (E) 01:19:26 435.225
TISAT 1 28 Sep 01:20:38 01:24:50 88° 259° (W) 01:29:02 437.305
JAS-2 28 Sep 01:21:59 01:29:31 51° 290° (WNW) 01:36:40 435.910
Cosmos 2491 28 Sep 01:22:27 01:30:37 40° 75° (ENE) 01:38:41 435.465 / 435.565
ITUPSAT 1 28 Sep 01:41:52 01:45:54 28° 69° (ENE) 01:49:56 437.325
BUGSAT 1 28 Sep 01:47:46 01:50:59 23° 290° (WNW) 01:54:12 437.445
DUCHIFAT 1 28 Sep 01:47:49 01:48:51 11° 295° (WNW) 01:49:53 145.980
SO-50 28 Sep 01:53:15 01:54:52 12° 253° (WSW) 01:56:28 436.795
SWISSCUBE 28 Sep 01:54:22 01:58:51 43° 72° (ENE) 02:03:21 437.505
Oscar 19 28 Sep 01:55:25 02:00:30 59° 101° (E) 02:05:33 437.125/150
BEESAT 28 Sep 02:07:11 02:11:47 53° 73° (ENE) 02:16:25 436.000
RS-15 28 Sep 02:07:34 02:15:37 19° 21° (NNE) 02:23:37 29.354- 29.394
BEESAT 2 28 Sep 02:13:37 02:16:46 22° 308° (NW) 02:19:57 435.950
YUBILEINY 28 Sep 02:18:31 02:26:33 42° 87° (E) 02:34:33 435.215
ISS 28 Sep 02:33:26 02:36:24 30° 34° (NE) 02:39:22 145.825
SRMSAT 28 Sep 02:44:14 02:45:41 11° 193° (SSW) 02:47:08 437.500
ITAMSAT 1 28 Sep 02:49:32 02:53:39 23° 95° (E) 02:57:45 435.822/435.867
Gurwin Techsat 1B 28 Sep 02:54:12 02:59:32 81° 284° (WNW) 03:04:50 435.225
AIST 2 28 Sep 02:58:52 03:02:31 32° 113° (ESE) 03:06:13 435.215
AO-7 28 Sep 03:02:37 03:08:24 20° 94° (E) 03:14:09 29.400- 29.500
Cosmos 2504 28 Sep 03:07:12 03:13:18 28° 86° (E) 03:19:13 435.465 / 435.565
Cosmos 2491 28 Sep 03:19:19 03:27:21 41° 273° (W) 03:35:21 435.465 / 435.565
ITUPSAT 1 28 Sep 03:19:40 03:23:38 26° 264° (W) 03:27:39 437.325
MOZHAYETS 4 28 Sep 03:32:04 03:36:35 68° 75° (ENE) 03:41:09
SWISSCUBE 28 Sep 03:33:46 03:36:48 17° 267° (W) 03:39:50 437.505
Oscar 19 28 Sep 03:36:24 03:39:16 15° 296° (WNW) 03:42:09 437.125/150
BEESAT 28 Sep 03:47:31 03:49:51 13° 268° (W) 03:52:10 436.000
KKS-1 28 Sep 03:56:00 04:00:28 82° 74° (ENE) 04:04:55 437.445
ISS 28 Sep 04:10:07 04:12:46 23° 230° (SW) 04:15:25 145.825
YUBILEINY 28 Sep 04:15:15 04:23:17 39° 285° (WNW) 04:31:19 435.215
RS-15 28 Sep 04:20:11 04:32:11 51° 51° (NE) 04:43:51 29.354- 29.394
PCSat 28 Sep 04:23:04 04:28:30 88° 298° (WNW) 04:33:57 145.827
ITAMSAT 1 28 Sep 04:28:23 04:33:10 37° 290° (WNW) 04:37:56 435.822/435.867
STARS 28 Sep 04:29:06 04:33:30 90° 19° (NNE) 04:37:53 437.465
AIST 2 28 Sep 04:37:55 04:41:02 21° 309° (NW) 04:44:11 435.215
CUBESAT XI-V 28 Sep 04:52:17 04:56:54 62° 75° (ENE) 05:01:34 437.345
AO-7 28 Sep 04:53:31 05:01:48 75° 290° (WNW) 05:10:03 29.400- 29.500
Cosmos 2504 28 Sep 04:59:18 05:06:20 44° 282° (WNW) 05:13:09 435.465 / 435.565
HORYU 2 28 Sep 05:10:19 05:14:06 26° 97° (E) 05:17:51 437.375
BRITE-PL 28 Sep 05:22:39 05:26:08 20° 93° (E) 05:29:24 437.365/2234.400
AIST 1 28 Sep 05:33:12 05:37:32 58° 279° (W) 05:41:51
DANDE 28 Sep 05:45:15 05:51:58 26° 68° (ENE) 05:58:17 436.750
AO-85 28 Sep 05:51:40 05:55:39 47° 57° (ENE) 05:59:24 145.980
LilacSat-2 28 Sep 05:53:00 05:54:43 13° 93° (E) 05:56:26 437.200
O/OREOS (USA 219) 28 Sep 05:54:18 05:56:00 12° 98° (E) 05:57:41 437.305
CUSAT 1 28 Sep 05:54:27 06:02:00 60° 77° (ENE) 06:08:11 437.405
STRAND 1 28 Sep 06:03:24 06:06:39 17° 65° (ENE) 06:09:54 437.568
PCSat 28 Sep 06:10:11 06:12:40 13° 314° (NW) 06:15:07 145.827
NOAA 15 28 Sep 06:12:30 06:17:14 32° 97° (E) 06:21:55 137.62
Cubesat XI-IV 28 Sep 06:29:33 06:34:32 38° 98° (E) 06:39:30 437.490
CUTE-I 28 Sep 06:29:36 06:34:36 39° 98° (E) 06:39:34 437.470
RS-15 28 Sep 06:33:05 06:44:35 48° 252° (WSW) 06:55:47 29.354- 29.394
CUBESAT XI-V 28 Sep 06:33:16 06:34:39 11° 269° (W) 06:36:02 437.345
HORYU 2 28 Sep 06:46:55 06:50:30 24° 291° (WNW) 06:54:06 437.375
GONETS M04 28 Sep 06:47:33 06:49:52 11° 75° (ENE) 06:52:11
GOMX 1 28 Sep 06:47:41 06:52:03 73° 101° (E) 06:56:12 467.674
AO-7 28 Sep 06:49:00 06:53:10 15° 309° (NW) 06:57:21 29.400- 29.500
BRITE-PL 28 Sep 07:00:30 07:04:42 32° 290° (WNW) 07:08:37 437.365/2234.400
DOVE 4 28 Sep 07:07:23 07:11:24 45° 99° (E) 07:15:22 437.250
NOAA 18 28 Sep 07:13:12 07:18:41 79° 103° (ESE) 07:24:10 137.9125
LilacSat-2 28 Sep 07:25:36 07:29:08 36° 287° (WNW) 07:32:41 437.200
DANDE 28 Sep 07:27:03 07:35:23 67° 266° (W) 07:42:53 436.750
O/OREOS (USA 219) 28 Sep 07:30:23 07:34:50 54° 293° (WNW) 07:39:20 437.305
HO-68 28 Sep 07:30:54 07:36:24 23° 95° (E) 07:41:52 435.675
AO-85 28 Sep 07:34:26 07:35:29 11° 253° (WSW) 07:36:32 145.980
CUSAT 1 28 Sep 07:37:45 07:43:08 22° 278° (W) 07:47:54 437.405
STRAND 1 28 Sep 07:40:26 07:45:22 51° 260° (W) 07:50:21 437.568
PRISM 28 Sep 07:45:44 07:48:05 15° 66° (ENE) 07:50:24 437.425
NOAA 15 28 Sep 07:52:25 07:56:51 28° 292° (WNW) 08:01:16 137.62
COMPASS 1 28 Sep 07:59:30 08:01:38 14° 92° (E) 08:03:44 437.405
Cosmos 2499 28 Sep 08:08:57 08:15:25 37° 89° (E) 08:21:46 435.465 / 435.565
Cubesat XI-IV 28 Sep 08:10:08 08:14:21 24° 293° (WNW) 08:18:35 437.490
CUTE-I 28 Sep 08:10:10 08:14:22 24° 293° (WNW) 08:18:35 437.470
CINEMA 3 28 Sep 08:16:18 08:20:29 71° 102° (ESE) 08:24:45 145.822/145.860
CUTE 1.7 + AOD 2 28 Sep 08:26:19 08:30:37 67° 101° (E) 08:34:51 437.475
SEEDS 28 Sep 08:27:09 08:31:15 45° 99° (E) 08:35:18 437.485
CANX-2 28 Sep 08:27:38 08:31:57 81° 101° (ESE) 08:36:15 2200.000
GONETS M04 28 Sep 08:36:14 08:45:01 74° 93° (E) 08:53:51
DOVE 4 28 Sep 08:47:00 08:48:40 12° 294° (WNW) 08:50:20 437.250
AAUSAT CUBESAT 2 28 Sep 08:48:36 08:52:35 41° 98° (E) 08:56:31 437.432
NOAA 18 28 Sep 08:56:18 08:58:37 13° 299° (WNW) 09:00:57 137.9125
ANTELSAT 28 Sep 08:56:26 08:57:11 10° 65° (ENE) 08:57:56 437.575/2403.000
DANDE 28 Sep 09:14:36 09:16:29 11° 284° (WNW) 09:18:20 436.750
TIGRISAT 28 Sep 09:14:43 09:17:25 17° 67° (ENE) 09:20:06 435.000
HO-68 28 Sep 09:17:28 09:24:26 58° 290° (WNW) 09:31:23 435.675
PRISM 28 Sep 09:19:04 09:22:59 40° 261° (W) 09:26:56 437.425
CUBEBUG 2 28 Sep 09:20:51 09:25:10 81° 283° (WNW) 09:29:36 437.445
FUNcube-1 28 Sep 09:24:11 09:28:16 39° 99° (E) 09:32:25 145.935
COMPASS 1 28 Sep 09:33:22 09:37:21 41° 287° (WNW) 09:41:17 437.405
BEESAT 3 28 Sep 09:36:26 09:40:15 42° 57° (ENE) 09:44:01 437.485
